Regional Weather Roundup
Issued by NWS Little Rock, AR

Home | Current Version | Previous Version | Graphics & Text | Print | Product List | Glossary On
Versions: 1 2 3 4 5 6 7 8 9 10 11 12 13 14 15 16 17 18 19 20 21 22 23 24 25 26 27 28 29 30 31 32 33 34 35 36 37 38 39 40 41 42 43 44 45 46 47 48 49 50
000
ASUS44 KLZK 270505
RWRLZK

WEATHER ROUNDUP FOR ARKANSAS
NATIONAL WEATHER SERVICE LITTLE ROCK AR
1200 AM CDT WED MAY 27 2015

NOTE: "FAIR" INDICATES FEW OR NO CLOUDS BELOW 12,000 FEET WITH NO
SIGNIFICANT WEATHER AND/OR OBSTRUCTIONS TO VISIBILITY.

ARZ001-003-010-029-270600-
NORTHWEST ARKANSAS

CITY           SKY/WX    TMP DP  RH WIND       PRES   REMARKS
FAYETTEVILLE   CLOUDY    66  64  93 CALM      30.02R
FORT SMITH     PTCLDY    73  67  81 SE3       30.00R
HARRISON       PTCLDY    67  63  87 S8        30.01F
BENTONVILLE    CLOUDY   N/A N/A N/A S7        30.01R
ROGERS         CLOUDY    68  63  84 SE7       30.02R
SILOAM SPGS    CLOUDY    66  59  77 E3        30.02R
HIGHFILL       CLOUDY    67  64  90 SE3       30.01R
$$

ARZ004-005-016-270600-
NORTH CENTRAL ARKANSAS

CITY           SKY/WX    TMP DP  RH WIND       PRES   REMARKS
BATESVILLE     PTCLDY    70  64  83 SW5       30.03F
FLIPPIN        PTCLDY    70  63  78 SE5       29.99F
MTN HOME       PTCLDY    65  62  90 SE3       30.00F
$$

ARZ040-041-270600-
WEST CENTRAL ARKANSAS

CITY           SKY/WX    TMP DP  RH WIND       PRES   REMARKS
MENA           MOCLDY    77  70  78 CALM      30.03R
MOUNT IDA      MOCLDY    70  68  93 CALM      30.02R
$$

ARZ009-017-025-026-028-270600-
NORTHEAST ARKANSAS

CITY           SKY/WX    TMP DP  RH WIND       PRES   REMARKS
CORNING        FAIR      68  66  94 S7        30.03F
JONESBORO      PTCLDY    63  62  97 CALM      30.04F
NEWPORT        MOCLDY    69  66  90 S3        30.04F
WALNUT RIDGE   PTCLDY    68  63  83 SE7       30.03F
BLYTHEVILLE    CLEAR     68  66  93 S3        30.06F
$$

ARZ022-023-033-042-044-270600-
CENTRAL ARKANSAS

CITY           SKY/WX    TMP DP  RH WIND       PRES   REMARKS
LITTLE ROCK    MOCLDY    70  65  84 S5        30.04F
N LITTLE ROCK  MOCLDY    70  69  94 S8        30.04F
JACKSONVILLE   PTCLDY    70  68  93 S3        30.03F
SEARCY         PTCLDY    67  65  93 CALM      30.05F
HOT SPRINGS    MOCLDY    70  67  90 E6        30.04R
RUSSELLVILLE   PTCLDY    68  67  96 CALM      30.02S
CLINTON        FAIR      64  64 100 CALM      30.03F FOG
$$

ARZ036-270600-
EAST ARKANSAS

CITY           SKY/WX    TMP DP  RH WIND       PRES   REMARKS
WEST MEMPHIS   MOCLDY    69  68  96 S3        30.05F
$$

ARZ050-053-066-070-073-270600-
SOUTHWEST ARKANSAS

CITY           SKY/WX    TMP DP  RH WIND       PRES   REMARKS
ARKADELPHIA    FAIR      72  72 100 CALM      30.05R
CAMDEN         MOCLDY    72  66  83 NE6       30.07R
TEXARKANA      CLOUDY    73  67  81 S9        30.03R
EL DORADO      MOCLDY    69  66  90 CALM      30.09R
DE QUEEN       CLOUDY    72  69  90 NE5G22    30.00R
$$

ARZ056-057-069-270600-
SOUTHEAST ARKANSAS

CITY           SKY/WX    TMP DP  RH WIND       PRES   REMARKS
PINE BLUFF     MOCLDY    72  69  90 S9        30.05F
STUTTGART      MOCLDY    72  64  78 SE5       30.05F
MONTICELLO     RAIN      74  72  93 VRB3      30.07S

$$




USA.gov is the U.S. government's official web portal to all federal, state and local government web resources and services.